Terug naar catalogus

COSMOS 1691 DEB

ActiefPO
NORAD 16271·DEBRIS·🇷🇺 Russia

Gelanceerd Oct 9, 1985 vanaf Plesetsk Cosmodrome

Loading…

Volgende Passages (komende 24 uur)

TLE

VersSource: Space-Track

Epoch: Sep 13, 2026, 20:34 UTC

1 16271U 85094Q   26256.85733425  .00000005  00000-0 -31208-4 0  9995
2 16271  82.6069 217.9330 0004675 299.9021  87.7414 12.63031364886708

Volg COSMOS 1691 DEB in realtime met AllMySat

Download on the App Store